Sidney-Richland, MT

4:51 AM MDT on September 20, 2019 (GMT -0600)
Sidney-Richland Municipal

Weather History for KSDY - August, 2019

Change the Weather History Date:

Sunday, August 25, 2019

  Actual Average Record
Temperature  
Mean Temperature 70 °F 69 °F  
Max Temperature 82 °F 84 °F 103 °F (1920)
Min Temperature 57 °F 54 °F 37 °F (1992)
Degree Days  
Heating Degree Days 0 0  
Month to date heating degree days 26 0  
Cooling Degree Days 4 4  
Month to date cooling degree days 126 82  
Growing Degree Days 20 (Base 50)    
Moisture  
Dew Point 54 °F    
Average Humidity 63    
Maximum Humidity 93    
Minimum Humidity 35    
Precipitation  
Precipitation T in 0.04 in 1.86 in (1960)
Month to date precipitation 1.66 0.95  
Sea Level Pressure  
Sea Level Pressure 30.91 in    
Wind  
Wind Speed 7 mph ()    
Max Wind Speed 25 mph    
Max Gust Speed 32 mph    
Visibility 10.0 miles    
Events Rain    
T = Trace of Precipitation, MM = Missing Value Source: Averaged Metar Reports

Daily Weather History Graph

Daily Weather History Graph

Search for Another Location

Airport or City:

Astronomy

Aug. 25, 2019 Rise Set
Actual Time 6:05 AM MDT 7:51 PM MDT
Civil Twilight 5:32 AM MDT 8:23 PM MDT
Nautical Twilight 4:52 AM MDT 9:03 PM MDT
Astronomical Twilight 4:08 AM MDT 9:47 PM MDT
Moon 12:29 AM MDT (8/25) 4:30 PM MDT (8/25)
Length of Visible Light 14h 51m
Length of Day
13h 45m
Waning Crescent, 28% of the Moon is Illuminated
Aug 25
Waning Crescent
Aug 30
New
Sep 5
First Quarter
Sep 13
Full
Sep 21
Last Quarter

Hourly Weather History & Observations

Time (MDT) Temp. Heat Index Dew Point Humidity Pressure Visibility Wind Dir Wind Speed Gust Speed Precip Events Conditions
12:56 AM 63.0 °F - 57.9 °F 84% 30.88 in 10.0 mi NW 6.9 mph - N/A   Clear
1:56 AM 60.1 °F - 57.0 °F 90% 30.87 in 10.0 mi Calm Calm - N/A   Clear
2:56 AM 60.1 °F - 55.9 °F 86% 30.85 in 10.0 mi Calm Calm - N/A   Clear
3:56 AM 59.0 °F - 57.0 °F 93% 30.86 in 10.0 mi Calm Calm - N/A   Overcast
4:56 AM 66.0 °F - 59.0 °F 78% 30.89 in 10.0 mi WNW 15.0 mph 23.0 mph 0.00 in Rain Light Rain
5:56 AM 64.0 °F - 59.0 °F 84% 30.86 in 10.0 mi East 5.8 mph - 0.00 in   Clear
6:56 AM 64.0 °F - 59.0 °F 84% 30.89 in 10.0 mi NW 9.2 mph - N/A   Mostly Cloudy
7:56 AM 68.0 °F - 60.1 °F 76% 30.90 in 10.0 mi North 5.8 mph - N/A   Scattered Clouds
8:56 AM 70.0 °F - 57.9 °F 65% 30.90 in 10.0 mi NE 4.6 mph - N/A   Clear
9:56 AM 72.0 °F - 59.0 °F 64% 30.90 in 10.0 mi Variable 3.5 mph - N/A   Clear
10:56 AM 77.0 °F - 57.9 °F 52% 30.91 in 10.0 mi West 9.2 mph - N/A   Clear
11:56 AM 79.0 °F - 55.9 °F 45% 30.91 in 10.0 mi WNW 11.5 mph 21.9 mph N/A   Clear
12:56 PM 80.1 °F - 52.0 °F 38% 30.90 in 10.0 mi WNW 16.1 mph 20.7 mph N/A   Clear
1:56 PM 80.1 °F - 51.1 °F 36% 30.90 in 10.0 mi WNW 25.3 mph 32.2 mph N/A   Clear
2:56 PM 80.1 °F 79.9 °F 53.1 °F 39% 30.90 in 10.0 mi WNW 21.9 mph 27.6 mph N/A   Clear
3:56 PM 79.0 °F - 48.9 °F 35% 30.90 in 10.0 mi WNW 12.7 mph 23.0 mph N/A   Clear
4:56 PM 75.9 °F - 51.1 °F 42% 30.92 in 10.0 mi NNW 18.4 mph 27.6 mph N/A   Clear
5:56 PM 73.9 °F - 48.9 °F 41% 30.92 in 10.0 mi NW 12.7 mph - N/A   Clear
6:56 PM 73.0 °F - 50.0 °F 44% 30.93 in 10.0 mi NW 10.4 mph 19.6 mph N/A   Clear
7:56 PM 68.0 °F - 48.9 °F 50% 30.95 in 10.0 mi NW 8.1 mph - N/A   Clear
8:56 PM 61.0 °F - 50.0 °F 67% 30.98 in 10.0 mi WNW 10.4 mph - N/A   Clear
9:56 PM 57.9 °F - 51.1 °F 78% 31.00 in 10.0 mi WNW 10.4 mph - N/A   Clear
10:56 PM 60.1 °F - 51.1 °F 72% 31.02 in 10.0 mi WNW 6.9 mph - N/A   Clear
11:56 PM 59.0 °F - 52.0 °F 78% 31.02 in 10.0 mi Calm Calm - N/A   Clear